Theta_e
296 298 300 301 301 303 302 304 306 308 309 309 312 312 318 320 322 322 321 319 319 318
293 295 297 297 297 299 304 306 302 303 304 306 306 308 312 318 319 321 321 320 319 318
291 293 294 297 297 298 300 302 301 297 299 299 300 305 308 314 319 319 318 318 317 317
289 291 292 294 296 297 298 298 299 296 296 298 298 299 304 307 316 315 313 311 314 310
288 289 290 291 293 295 295 295 295 295 294 295 296 297 300 300 305 303 299 299 300 298
286 287 288 289 291 292 293 292 293 293 292 292 292 293 293 295 296 295 295 296 295 294
284 286 287 288 289 290 291 290 289 289 289 290 290 290 289 290 290 289 289 290 291 292
283 285 286 286 287 287 287 287 287 287 287 288 289 289 288 288 288 287 286 286 287 287
282 283 284 285 285 285 285 285 286 285 285 285 286 288 289 286 287 286 285 284 284 285
281 282 283 283 283 283 284 284 284 284 284 284 285 286 286 285 284 284 283 283 283 282
281 281 282 282 282 282 283 283 283 283 284 284 284 286 285 284 283 282 282 282 283 282
282 282 282 282 282 282 282 282 282 283 283 283 284 286 285 283 282 282 281 282 282 282
282 282 281 281 282 282 282 282 283 283 283 284 284 286 285 283 282 280 280 281 282 283
281 282 282 282 282 281 281 281 281 281 282 283 284 285 286 285 282 281 280 280 280 282
Wind_Speed
11 6 3 4 3 3 1 2 1 2 4 5 4 2 9 7 10 13 15 17 12 10
9 7 6 4 4 4 4 3 2 2 5 5 6 6 4 9 10 11 15 15 16 11
9 7 7 6 7 7 6 5 4 3 4 5 6 8 4 9 13 12 8 8 13 11
8 7 6 5 4 3 4 3 3 3 4 4 5 6 7 7 12 11 8 6 9 8
9 8 6 5 5 4 3 3 3 4 4 3 4 5 4 3 6 10 9 6 8 6
8 7 6 5 5 3 1 3 3 3 3 2 4 3 3 4 2 11 10 10 10 9
7 7 5 4 3 2 3 4 3 3 3 2 5 2 2 8 6 14 12 11 12 11
7 6 5 4 4 5 5 6 4 3 5 6 7 3 7 7 2 15 16 14 15 15
7 6 6 6 7 8 7 8 7 9 9 10 7 9 14 14 7 16 16 16 14 14
7 8 8 8 9 9 10 10 10 11 12 12 11 18 22 13 9 13 13 17 11 12
8 9 9 11 11 11 11 11 11 12 13 14 13 25 26 18 10 14 16 15 14 12
10 10 10 11 11 11 12 12 12 12 17 13 14 22 16 10 7 16 18 15 13 13
11 12 12 11 11 10 11 12 11 15 14 15 14 20 16 8 7 13 12 14 16 24
10 10 9 10 9 9 10 12 13 13 12 15 12 14 20 15 8 10 11 11 10 11
Wind_Direction
316 336 5 23 341 24 281 184 148 252 261 270 281 287 260 239 213 195 195 187 175 196
321 343 347 4 20 2 26 357 31 329 298 288 278 253 273 245 213 204 197 201 170 191
313 346 339 2 7 353 343 356 354 337 284 279 280 278 215 252 206 191 184 175 181 182
320 332 342 358 332 328 325 341 326 301 281 275 290 289 284 280 203 192 171 165 163 162
326 335 340 335 322 324 339 346 331 314 314 297 300 302 268 273 162 140 127 116 109 97
329 329 325 318 309 300 85 33 359 360 352 336 14 326 355 61 88 108 113 113 99 92
329 325 321 328 342 28 80 79 42 28 30 329 50 5 160 82 119 92 88 83 94 82
342 349 360 18 38 44 55 64 45 52 42 37 35 330 99 88 82 101 100 82 75 78
4 18 30 45 56 61 59 58 57 56 52 52 52 49 82 65 225 93 97 94 78 73
15 33 41 54 59 65 64 64 62 62 62 58 58 63 69 61 64 85 85 93 97 88
24 42 51 62 61 62 64 63 63 62 63 60 53 54 56 58 67 76 73 78 81 91
27 44 53 58 62 63 69 67 66 63 63 62 61 62 65 60 75 76 70 67 71 74
30 42 46 49 53 62 69 70 68 66 60 59 61 64 71 63 72 76 74 61 67 68
26 37 44 53 51 53 62 64 60 65 56 56 52 61 65 65 71 78 79 70 62 70